[[{"header":{"parameterUnit":"m.s-1","parameterCategory":1,"la1":30.2991,"la2":30.254,"lo1":-89.0895,"lo2":-89.0444,"dy":0.0017,"dx":0.0017,"nx":28,"ny":28,"refTime":"2026-02-14T09:00:00:Z","depth":0,"parameterNumber":2,"parameterNumberName":"U-component_of_WINDS"},"data":[0,0,0,0,0,0,0,0,0,0,0,0,0,0,0,0,0,0,0,0,0,0,0,0,0,0,0,0,0,0,0,0,0,0,0,0,0,0,0,0,0,0,0,0,0,0,0,0,0,0,0,0,0,0,0,0,0,0,-0.709,-0.709,0,-0.7062,-0.7061,-0.7061,-0.7034,-0.7034,-0.7034,-0.7034,-0.7007,-0.7006,-0.7006,0,0,0,0,0,0,0,0,0,0,0,0,0,-0.7126,-0.7125,-0.709,-0.709,-0.709,-0.7062,-0.7061,-0.7061,-0.7035,-0.7034,-0.7034,-0.7033,-0.7007,-0.7006,-0.7006,0,0,0,0,0,0,0,0,0,0,0,0,0,-0.7105,-0.7125,-0.709,-0.7073,-0.7071,-0.7062,-0.7061,-0.7061,-0.7035,-0.7034,-0.7034,-0.7033,-0.7007,-0.7006,-0.7006,-0.7012,0,0,-0.7004,-0.7003,0,0,0,0,0,0,0,0,-0.7106,-0.7104,-0.7076,-0.7074,-0.7072,-0.7051,-0.7064,-0.7044,-0.7035,-0.7049,-0.7034,-0.7033,-0.7022,-0.702,-0.7016,-0.701,-0.7009,-0.7004,-0.7003,-0.7003,-0.7003,0,0,0,0,0,0,0,-0.7108,-0.7105,-0.7079,-0.7076,-0.7073,-0.7068,-0.7064,-0.706,-0.7039,-0.7047,-0.7045,-0.7042,-0.7021,-0.7016,-0.7015,-0.7009,-0.7004,-0.7003,-0.7003,-0.7003,-0.7008,-0.7009,0,0,0,0,0,0,-0.7111,-0.7106,-0.708,-0.7078,-0.7088,-0.7068,-0.7064,-0.7058,-0.7038,-0.7035,-0.7043,-0.7041,-0.7018,-0.7016,-0.7014,-0.702,-0.7003,-0.7002,-0.7002,-0.7008,-0.7008,-0.7009,0,0,0,0,0,0,-0.7112,-0.7109,-0.7081,-0.7092,-0.7088,-0.7067,-0.7062,-0.7058,-0.7054,-0.7035,-0.7031,-0.7042,-0.7017,-0.7015,-0.7012,-0.7019,-0.7002,-0.7002,-0.7007,-0.7008,-0.7008,-0.7033,0,0,0,0,0,0,-0.7113,-0.711,-0.7111,-0.7092,-0.7087,-0.7079,-0.7062,-0.7058,-0.7052,-0.705,-0.7033,-0.703,-0.7017,-0.7014,-0.7012,-0.7018,-0.7001,-0.7006,-0.7007,-0.7008,-0.7032,-0.7035,-0.7037,0,0,0,0,0,-0.7115,-0.712,-0.7111,-0.7108,-0.7088,-0.708,-0.7077,-0.7061,-0.7053,-0.7055,-0.7043,-0.7031,-0.7018,-0.7014,-0.7011,-0.7017,-0.7006,-0.7007,-0.7008,-0.703,-0.7034,-0.7037,0,0,0,0,0,0,-0.7141,-0.7117,-0.7107,-0.7106,-0.7095,-0.7075,-0.7077,-0.7065,-0.7057,-0.7056,-0.7037,-0.7033,-0.7033,-0.7025,-0.702,-0.7023,-0.7011,-0.7011,-0.7028,-0.7031,-0.7034,-0.7037,-0.7001,0,0,0,0,0,-0.7146,-0.7141,-0.712,-0.7121,-0.7116,-0.7097,-0.7093,-0.7082,-0.707,-0.7066,-0.7053,-0.7043,-0.7037,-0.7034,-0.7027,-0.703,-0.7027,-0.7033,-0.7036,-0.7038,-0.704,-0.7042,-0.7045,-0.7013,-0.7013,-0.7013,0,0,-0.7158,-0.7144,-0.7142,-0.7126,-0.7116,-0.7112,-0.7094,-0.709,-0.7086,-0.7065,-0.7062,-0.7053,-0.7041,-0.7041,-0.7041,-0.7034,-0.7048,-0.704,-0.7042,-0.7042,-0.7043,-0.7046,-0.7049,-0.7013,-0.7013,-0.7013,0,0,-0.7177,-0.7165,-0.7165,-0.7155,-0.7141,-0.7128,-0.7128,-0.711,-0.7103,-0.71,-0.7084,-0.7081,-0.707,-0.7062,-0.7057,-0.7073,-0.7062,-0.7072,-0.7087,-0.7089,-0.7091,-0.7094,-0.71,-0.7103,-0.7073,-0.7073,-0.7073,0,-0.7193,-0.7185,-0.7166,-0.7163,-0.7157,-0.7137,-0.7137,-0.7129,-0.7114,-0.711,-0.7103,-0.709,-0.708,-0.7079,-0.7083,-0.7079,-0.708,-0.7074,-0.7092,-0.7094,-0.7096,-0.7102,-0.7105,-0.7074,-0.7074,-0.7074,-0.7074,0,-0.7206,-0.7201,-0.7203,-0.7187,-0.7181,-0.718,-0.7162,-0.7159,-0.7148,-0.7137,-0.7134,-0.7122,-0.7113,-0.7111,-0.7101,-0.7109,-0.7106,-0.7096,-0.7083,-0.7101,-0.7107,-0.7109,-0.7076,-0.7076,-0.7075,-0.7075,0,0,-0.7241,-0.7216,-0.7217,-0.721,-0.7192,-0.7188,-0.7186,-0.7177,-0.7175,-0.7164,-0.7163,-0.7155,-0.7146,-0.714,-0.7128,-0.713,-0.7145,-0.712,-0.7119,-0.7126,-0.7155,-0.7163,-0.7166,-0.7137,-0.7138,-0.7138,-0.7156,0,-0.7258,-0.7253,-0.7236,-0.7236,-0.7232,-0.7213,-0.7211,-0.7201,-0.7191,-0.7186,-0.7175,-0.717,-0.7157,-0.7154,-0.7154,-0.7143,-0.7151,-0.7141,-0.7137,-0.7137,-0.7142,-0.7169,-0.7178,-0.7196,-0.7158,-0.7158,-0.7159,0,-0.7277,-0.7267,-0.7267,-0.725,-0.7247,-0.7246,-0.7237,-0.7232,-0.722,-0.7213,-0.7206,-0.7193,-0.7191,-0.7179,-0.7177,-0.7171,-0.7168,-0.7163,-0.7163,-0.7163,-0.715,-0.7171,-0.7201,-0.7204,-0.7162,-0.7162,-0.7161,0,-0.7304,-0.7291,-0.7289,-0.7284,-0.7264,-0.7263,-0.7255,-0.7243,-0.7238,-0.723,-0.7227,-0.7219,-0.7215,-0.721,-0.7195,-0.7188,-0.7195,-0.7182,-0.719,-0.7191,-0.7193,-0.7194,-0.7225,-0.719,-0.719,-0.719,-0.719,0,-0.7324,-0.7325,-0.7301,-0.73,-0.73,-0.7282,-0.7283,-0.7274,-0.7263,-0.726,-0.7243,-0.7242,-0.7222,-0.7219,-0.7208,-0.7208,-0.7206,-0.7201,-0.7198,-0.7203,-0.7204,-0.7202,-0.7201,-0.7191,-0.719,-0.719,-0.719,0,-0.7355,-0.7338,-0.7335,-0.7316,-0.7312,-0.7313,-0.7298,-0.7297,-0.7285,-0.7282,-0.7281,-0.7263,-0.7258,-0.7243,-0.7235,-0.7227,-0.7232,-0.7225,-0.7235,-0.7234,-0.7243,-0.7243,-0.7275,-0.7279,-0.7241,-0.7241,-0.7242,0,-0.737,-0.737,-0.7351,-0.7348,-0.734,-0.7335,-0.733,-0.7312,-0.7308,-0.7295,-0.7296,-0.7289,-0.7283,-0.7277,-0.7264,-0.7257,-0.7252,-0.7263,-0.7251,-0.7256,-0.7253,-0.7254,-0.7254,-0.7266,-0.7267,-0.7267,-0.7267,0,-0.7398,-0.739,-0.7383,-0.7374,-0.7369,-0.7361,-0.7352,-0.735,-0.733,-0.7327,-0.7321,-0.7316,-0.7307,-0.7302,-0.7293,-0.7286,-0.7274,-0.7271,-0.7273,-0.7279,-0.7285,-0.7283,-0.7244,-0.7271,-0.7271,-0.727,-0.727,-0.727,-0.7422,-0.7421,-0.7408,-0.7402,-0.7393,-0.7385,-0.7383,-0.7372,-0.7366,-0.7357,-0.7347,-0.7343,-0.7332,-0.7319,-0.7313,-0.731,-0.7303,-0.7306,-0.7306,-0.7307,-0.731,-0.7284,-0.7308,-0.7308,-0.7308,-0.7308,-0.7308,0,-0.7451,-0.7441,-0.7435,-0.7423,-0.7418,-0.7406,-0.7396,-0.7393,-0.7389,-0.7379,-0.7374,-0.7368,-0.7362,-0.7349,-0.7342,-0.7343,-0.7337,-0.7342,-0.7342,-0.7341,-0.7316,-0.7315,-0.7346,-0.7346,-0.7346,-0.7346,-0.7346,-0.7346,-0.7465,-0.7464,-0.7454,-0.7449,-0.744,-0.7435,-0.743,-0.7423,-0.7415,-0.7409,-0.7404,-0.7395,-0.7385,-0.7377,-0.7372,-0.7368,-0.7367,-0.7374,-0.7368,-0.7346,-0.7342,-0.7339,-0.7338,-0.7373,-0.7373,-0.7393,-0.7394,-0.7394]},{"header":{"parameterUnit":"m.s-1","parameterCategory":1,"la1":30.2991,"la2":30.254,"lo1":-89.0895,"lo2":-89.0444,"dy":0.0017,"dx":0.0017,"nx":28,"ny":28,"refTime":"2026-02-14T09:00:00:Z","depth":0,"parameterNumber":3,"parameterNumberName":"V-component_of_WINDS"},"data":[0,0,0,0,0,0,0,0,0,0,0,0,0,0,0,0,0,0,0,0,0,0,0,0,0,0,0,0,0,0,0,0,0,0,0,0,0,0,0,0,0,0,0,0,0,0,0,0,0,0,0,0,0,0,0,0,0,0,0.3231,0.323,0,0.3113,0.3112,0.311,0.3047,0.3047,0.3046,0.3046,0.292,0.2916,0.2913,0,0,0,0,0,0,0,0,0,0,0,0,0,0.3395,0.3393,0.3231,0.323,0.3228,0.3113,0.3112,0.311,0.3047,0.3046,0.3046,0.3046,0.2921,0.2917,0.2913,0,0,0,0,0,0,0,0,0,0,0,0,0,0.3305,0.3392,0.3231,0.3183,0.3177,0.3114,0.3112,0.311,0.3047,0.3046,0.3046,0.3046,0.2922,0.2917,0.2912,0.2886,0,0,0.2897,0.2895,0,0,0,0,0,0,0,0,0.331,0.3299,0.3191,0.3186,0.318,0.3095,0.3123,0.3034,0.3047,0.3096,0.3046,0.3046,0.2978,0.2968,0.2946,0.288,0.2875,0.2897,0.2894,0.2892,0.2891,0,0,0,0,0,0,0,0.3317,0.3304,0.3184,0.319,0.3183,0.3165,0.3152,0.3106,0.3039,0.3092,0.3087,0.3074,0.2974,0.2951,0.2943,0.2873,0.2897,0.2893,0.289,0.2888,0.2778,0.2778,0,0,0,0,0,0,0.3332,0.331,0.3188,0.3181,0.3246,0.3162,0.3148,0.3122,0.304,0.3027,0.3074,0.3072,0.2959,0.2948,0.2938,0.2901,0.2892,0.2887,0.2885,0.2778,0.2778,0.2778,0,0,0,0,0,0,0.3335,0.3321,0.3193,0.3244,0.3226,0.316,0.3131,0.312,0.3097,0.3026,0.3014,0.3063,0.2959,0.2945,0.29,0.2896,0.2885,0.2881,0.2778,0.2778,0.2778,0.2828,0,0,0,0,0,0,0.334,0.3323,0.3314,0.3244,0.3224,0.3158,0.3131,0.3118,0.3089,0.3084,0.3013,0.3001,0.2958,0.2907,0.2895,0.2889,0.2877,0.2778,0.2778,0.2778,0.2826,0.283,0.2833,0,0,0,0,0,0.3347,0.3332,0.3314,0.33,0.3211,0.3158,0.3146,0.3099,0.3089,0.3078,0.3033,0.3003,0.2899,0.2903,0.2889,0.2881,0.2778,0.2778,0.2778,0.2825,0.2829,0.2833,0,0,0,0,0,0,0.3401,0.3322,0.3301,0.3264,0.3219,0.3148,0.3133,0.3105,0.306,0.3057,0.2998,0.2983,0.2943,0.2907,0.2914,0.2851,0.2835,0.2832,0.2876,0.2879,0.2882,0.2891,0.2873,0,0,0,0,0,0.3409,0.3375,0.3306,0.328,0.3259,0.32,0.3175,0.3143,0.3092,0.3072,0.3024,0.2975,0.2931,0.2903,0.2858,0.2821,0.2804,0.2809,0.2812,0.2815,0.2813,0.2789,0.279,0.2778,0.2778,0.2778,0,0,0.3424,0.3377,0.3359,0.329,0.3251,0.3215,0.3184,0.3147,0.3119,0.3066,0.3021,0.2984,0.2925,0.2883,0.2862,0.2852,0.2812,0.2815,0.2818,0.2814,0.2789,0.279,0.2792,0.2778,0.2778,0.2778,0,0,0.3434,0.3396,0.3369,0.3331,0.3273,0.3234,0.3228,0.3161,0.3135,0.3089,0.3048,0.3013,0.2939,0.2898,0.2868,0.2863,0.2833,0.285,0.2866,0.2843,0.2844,0.2845,0.2842,0.2842,0.2848,0.2848,0.2848,0,0.346,0.3406,0.3358,0.3324,0.3294,0.3246,0.3218,0.3183,0.3113,0.3092,0.3082,0.2988,0.2945,0.2893,0.2892,0.2869,0.2859,0.2857,0.2849,0.2848,0.2848,0.2845,0.2844,0.285,0.285,0.285,0.285,0,0.3441,0.3404,0.3389,0.3325,0.3293,0.3262,0.3207,0.318,0.3151,0.3112,0.3065,0.3012,0.2956,0.2941,0.2911,0.2884,0.288,0.286,0.2843,0.2853,0.2848,0.2847,0.2854,0.2853,0.2852,0.2852,0,0,0.3481,0.3391,0.3387,0.3357,0.3289,0.3259,0.3224,0.3171,0.3149,0.3102,0.3071,0.3009,0.2991,0.2956,0.2921,0.2902,0.2899,0.2884,0.2881,0.2888,0.2866,0.2881,0.288,0.288,0.2879,0.2879,0.287,0,0.3481,0.342,0.3375,0.333,0.3295,0.3249,0.3218,0.3173,0.3136,0.3098,0.3056,0.3014,0.2993,0.2972,0.295,0.2905,0.2894,0.2904,0.2848,0.2847,0.2864,0.2878,0.2894,0.2889,0.2869,0.2868,0.2868,0,0.3473,0.3429,0.3382,0.3318,0.3301,0.3275,0.3222,0.3188,0.3135,0.3109,0.3071,0.3035,0.2994,0.2981,0.2924,0.2932,0.2906,0.288,0.2879,0.2871,0.2858,0.287,0.2886,0.2885,0.2865,0.2865,0.2865,0,0.3506,0.3436,0.3398,0.3374,0.3298,0.3281,0.3248,0.3195,0.3166,0.3119,0.3099,0.3048,0.3019,0.2979,0.293,0.2925,0.2877,0.286,0.2853,0.2854,0.2845,0.2846,0.2856,0.2829,0.2829,0.2829,0.2829,0,0.351,0.3483,0.3412,0.3389,0.3356,0.3304,0.3272,0.3235,0.3188,0.3155,0.3111,0.3081,0.3017,0.2978,0.2939,0.2897,0.2884,0.2861,0.2851,0.2865,0.2868,0.2846,0.2845,0.2829,0.2829,0.2829,0.2829,0,0.3543,0.3494,0.345,0.3383,0.3365,0.3344,0.3285,0.3259,0.322,0.3179,0.3166,0.3104,0.3056,0.3002,0.2936,0.2909,0.287,0.2855,0.2889,0.2883,0.2879,0.288,0.2875,0.2871,0.2848,0.2848,0.2849,0,0.3548,0.3526,0.3457,0.3433,0.3402,0.3364,0.3334,0.3281,0.3252,0.3189,0.3171,0.312,0.3077,0.3002,0.2949,0.2898,0.2882,0.2884,0.2874,0.2888,0.2881,0.2883,0.288,0.2886,0.2887,0.2887,0.2888,0,0.3563,0.354,0.3501,0.3452,0.3419,0.3378,0.3334,0.3316,0.3255,0.3224,0.3175,0.3142,0.3075,0.3025,0.2967,0.2931,0.2898,0.2892,0.2887,0.2901,0.2921,0.2909,0.2896,0.2892,0.2891,0.2891,0.2891,0.2891,0.3581,0.3559,0.3508,0.3464,0.3427,0.3387,0.336,0.3318,0.3278,0.3221,0.3191,0.3143,0.3088,0.3008,0.2973,0.2933,0.2923,0.2916,0.2915,0.2914,0.2917,0.2928,0.2922,0.2922,0.2922,0.2922,0.2922,0,0.3593,0.3558,0.3519,0.3461,0.3426,0.3401,0.3352,0.3324,0.3283,0.3236,0.3195,0.3138,0.3089,0.3033,0.298,0.2959,0.2942,0.2946,0.2947,0.2939,0.293,0.2939,0.296,0.296,0.296,0.296,0.296,0.296,0.3596,0.3557,0.3528,0.347,0.3433,0.3388,0.3362,0.3324,0.3287,0.3227,0.3186,0.3151,0.3099,0.3042,0.2995,0.298,0.2962,0.297,0.295,0.2943,0.294,0.2937,0.2945,0.2967,0.2967,0.2962,0.2962,0.2962]}]]